Flag for Poland Weather past 2 weeks in Elbląg, Poland

Now
67 °F

Scattered clouds.


Feels Like: 67 °F
Forecast: 64 / 86 °F
Wind: 5 mph from East

Location: Hel

Current Time: Jul 24, 2014 at 8:31:02 AM

Latest Report: Jul 24, 2014 at 7:00 AM


Visibility: 13 mi

Pressure: 30.09 "Hg

Humidity: 80%

Dew point: 60 °F

Location of ElblągLocation

Historic Weather in Elbląg — Graph

°F

Elbląg temperature yesterday

Maximum temperature yesterday: 75 °F (at 2:00 PM)
Minimum temperature yesterday: 67 °F (at 5:00 AM)
Average temperature yesterday: 70 °F

Past Weeks' High & Low Weather Summary

 TemperatureHumidityPressure
High78 °F (Jul 22, 1:00 PM)98% (Jul 15, 3:00 AM)30.23 "Hg (Jul 15, 3:00 AM)
Low55 °F (Jul 18, 5:00 AM)53% (Jul 17, 12:00 PM)29.67 "Hg (Jul 13, 10:00 AM)
Average67 °F81%30.00 "Hg
* Reported Jul 9 10:00 AM — Jul 24 7:00 AM, Elbląg, Weather by CustomWeather, © 2014

Note: Actual official high and low records may vary slightly from our data, if they occured in-between our weather recording intervals... More about our weather records

Advertising

Elbląg weather history for previous 24 hours

 ConditionsComfort  
Time TempWeatherWind HumidityBarometerVisibility
7:00 AM
Jul 24
67 °FScattered clouds.5 mph80%30.09 "Hg12 mi
6:00 AM64 °FPassing clouds.3 mph87%30.09 "Hg12 mi
5:00 AM64 °FPassing clouds.3 mph89%30.08 "Hg12 mi
4:00 AM64 °FPassing clouds.3 mph90%30.09 "Hg9 mi
3:00 AM65 °FPassing clouds.3 mph91%30.09 "Hg9 mi
2:00 AM66 °FPassing clouds.3 mph92%30.10 "Hg6 mi
1:00 AM67 °FPassing clouds.3 mph92%30.11 "Hg9 mi
12:00 AM67 °FPassing clouds.2 mph91%30.11 "Hg9 mi
11:00 PM
Jul 23
68 °FClear.3 mph89%30.11 "Hg12 mi
10:00 PM68 °FPassing clouds.3 mph87%30.11 "Hg12 mi
9:00 PM69 °FScattered clouds.3 mph83%30.11 "Hg12 mi
8:00 PM70 °FScattered clouds.3 mph80%30.10 "Hg11 mi
7:00 PM71 °FScattered clouds.5 mph75%30.10 "Hg12 mi
6:00 PM74 °FScattered clouds.5 mph70%30.10 "Hg12 mi
5:00 PM75 °FScattered clouds.5 mph67%30.10 "Hg31 mi
4:00 PM74 °FSunny.6 mph68%30.11 "Hg31 mi
2:00 PM75 °FPassing clouds.6 mph64%30.13 "Hg19 mi
Weather by CustomWeather, © 2014

See weather overviewHow to use our weather pages